Hourly Weather Bolshoe Vasilkovo

Today, 25 July, Sunday

Time Temperature Precipitation Wind Pressure Humidity
00:00 +11°C° 0 mm 1 mps 743 mmHg 73%
01:00 +11°C° 0 mm 1 mps 743 mmHg 72%
02:00 +12°C° 0 mm 1 mps 743 mmHg 73%
03:00 +12°C° 0 mm 1 mps 743 mmHg 71%
04:00 +13°C° 0 mm 1 mps 743 mmHg 70%
05:00 +14°C° 0 mm 1 mps 743 mmHg 68%
06:00 +15°C° 0 mm 1 mps 744 mmHg 64%
07:00 +16°C° 0 mm 1 mps 744 mmHg 61%
08:00 +19°C° 0 mm 1 mps 744 mmHg 58%
09:00 +20°C° 0 mm 1 mps 744 mmHg 52%
10:00 +22°C° 0 mm 1 mps 744 mmHg 45%
11:00 +24°C° 0 mm 2 mps 744 mmHg 39%
12:00 +23°C° 0 mm 1 mps 744 mmHg 41%
13:00 +23°C° 0 mm 1 mps 744 mmHg 44%
14:00 +23°C° 0 mm 1 mps 744 mmHg 46%
15:00 +23°C° 0 mm 1 mps 744 mmHg 50%
16:00 +22°C° 0 mm 1 mps 744 mmHg 55%
17:00 +22°C° 0 mm 1 mps 744 mmHg 59%
18:00 +21°C° 0 mm 1 mps 744 mmHg 62%
19:00 +20°C° 0 mm 1 mps 744 mmHg 64%
20:00 +17°C° 0 mm 0 mps 745 mmHg 66%
21:00 +18°C° 0 mm 1 mps 745 mmHg 68%
22:00 +16°C° 0 mm 1 mps 745 mmHg 70%
23:00 +16°C° 0 mm 1 mps 745 mmHg 72%

Tomorrow, 26 July, Monday

Time Temperature Precipitation Wind Pressure Humidity
00:00 +15°C° 0 mm 1 mps 745 mmHg 72%
01:00 +14°C° 0 mm 0 mps 745 mmHg 73%
02:00 +13°C° 0 mm 0 mps 745 mmHg 73%
03:00 +14°C° 0 mm 0 mps 746 mmHg 73%
04:00 +14°C° 0 mm 0 mps 746 mmHg 73%
05:00 +14°C° 0 mm 0 mps 746 mmHg 73%
06:00 +17°C° 0 mm 0 mps 746 mmHg 65%
07:00 +19°C° 0 mm 0 mps 746 mmHg 56%
08:00 +21°C° 0 mm 0 mps 746 mmHg 48%
09:00 +23°C° 0 mm 0 mps 746 mmHg 44%
10:00 +24°C° 0 mm 0 mps 746 mmHg 39%
11:00 +25°C° 0 mm 0 mps 746 mmHg 35%
12:00 +28°C° 0 mm 1 mps 746 mmHg 34%
13:00 +28°C° 0 mm 1 mps 746 mmHg 34%
14:00 +28°C° 0 mm 1 mps 746 mmHg 33%
15:00 +27°C° 0 mm 1 mps 746 mmHg 35%
16:00 +27°C° 0 mm 1 mps 746 mmHg 37%
17:00 +27°C° 0 mm 1 mps 746 mmHg 39%
18:00 +25°C° 0 mm 1 mps 746 mmHg 46%
19:00 +23°C° 0 mm 1 mps 746 mmHg 53%
20:00 +19°C° 0 mm 0 mps 746 mmHg 59%
21:00 +18°C° 0 mm 0 mps 746 mmHg 60%
22:00 +20°C° 0 mm 1 mps 746 mmHg 61%
23:00 +19°C° 0 mm 1 mps 746 mmHg 62%

Day after tomorrow, 27 July, Tuesday

Time Temperature Precipitation Wind Pressure Humidity
00:00 +19°C° 0 mm 1 mps 746 mmHg 65%
01:00 +18°C° 0 mm 1 mps 746 mmHg 68%
02:00 +16°C° 0 mm 1 mps 746 mmHg 70%
03:00 +15°C° 0 mm 0 mps 746 mmHg 71%
04:00 +16°C° 0 mm 0 mps 746 mmHg 71%
05:00 +16°C° 0 mm 0 mps 746 mmHg 71%
06:00 +18°C° 0 mm 0 mps 746 mmHg 63%
07:00 +21°C° 0 mm 0 mps 746 mmHg 56%
08:00 +25°C° 0 mm 1 mps 746 mmHg 48%
09:00 +27°C° 0 mm 1 mps 746 mmHg 44%
10:00 +28°C° 0 mm 1 mps 746 mmHg 40%
11:00 +29°C° 0 mm 1 mps 745 mmHg 35%
12:00 +29°C° 0 mm 1 mps 745 mmHg 38%
13:00 +29°C° 0 mm 1 mps 745 mmHg 40%
14:00 +28°C° 0 mm 1 mps 744 mmHg 43%
15:00 +27°C° 0.1 mm 2 mps 744 mmHg 48%
16:00 +26°C° 0.1 mm 2 mps 744 mmHg 53%
17:00 +25°C° 0.1 mm 2 mps 744 mmHg 58%
18:00 +24°C° 0.1 mm 2 mps 743 mmHg 62%
19:00 +21°C° 0.1 mm 2 mps 743 mmHg 67%
20:00 +21°C° 0.1 mm 1 mps 743 mmHg 72%
21:00 +20°C° 0 mm 1 mps 743 mmHg 75%
22:00 +20°C° 0 mm 1 mps 743 mmHg 79%
23:00 +19°C° 0 mm 1 mps 743 mmHg 83%

28 July, Wednesday

Time Temperature Precipitation Wind Pressure Humidity
00:00 +18°C° 0 mm 1 mps 742 mmHg 85%
01:00 +18°C° 0 mm 1 mps 742 mmHg 86%
02:00 +18°C° 0 mm 1 mps 742 mmHg 88%
03:00 +18°C° 0 mm 1 mps 742 mmHg 88%
04:00 +18°C° 0 mm 1 mps 741 mmHg 88%
05:00 +18°C° 0 mm 1 mps 741 mmHg 88%
06:00 +19°C° 0 mm 2 mps 741 mmHg 80%
07:00 +21°C° 0 mm 3 mps 741 mmHg 72%
08:00 +24°C° 0 mm 3 mps 741 mmHg 63%
09:00 +24°C° 0.1 mm 3 mps 740 mmHg 64%
10:00 +22°C° 0.1 mm 3 mps 740 mmHg 66%
11:00 +22°C° 0.1 mm 3 mps 740 mmHg 67%
12:00 +22°C° 0.1 mm 3 mps 739 mmHg 66%
13:00 +22°C° 0.1 mm 3 mps 739 mmHg 65%
14:00 +21°C° 0.1 mm 4 mps 739 mmHg 63%
15:00 +21°C° 0 mm 3 mps 738 mmHg 67%
16:00 +20°C° 0 mm 2 mps 738 mmHg 72%
17:00 +19°C° 0 mm 2 mps 738 mmHg 76%
18:00 +18°C° 0 mm 2 mps 737 mmHg 80%
19:00 +18°C° 0 mm 1 mps 737 mmHg 85%
20:00 +18°C° 0 mm 1 mps 737 mmHg 89%
21:00 +18°C° 0 mm 1 mps 737 mmHg 90%
22:00 +15°C° 0 mm 0 mps 736 mmHg 90%
23:00 +15°C° 0 mm 0 mps 736 mmHg 91%

29 July, Thursday

Time Temperature Precipitation Wind Pressure Humidity
00:00 +15°C° 0 mm 0 mps 736 mmHg 92%
01:00 +15°C° 0 mm 0 mps 736 mmHg 92%
02:00 +15°C° 0 mm 0 mps 736 mmHg 93%
03:00 +15°C° 0 mm 0 mps 736 mmHg 93%
04:00 +15°C° 0 mm 0 mps 736 mmHg 93%
05:00 +15°C° 0 mm 0 mps 736 mmHg 92%
06:00 +19°C° 0 mm 1 mps 736 mmHg 87%
07:00 +20°C° 0 mm 1 mps 736 mmHg 81%
08:00 +20°C° 0 mm 2 mps 736 mmHg 76%
09:00 +21°C° 0 mm 2 mps 736 mmHg 72%
10:00 +23°C° 0 mm 2 mps 737 mmHg 69%
11:00 +22°C° 0 mm 3 mps 737 mmHg 65%
12:00 +25°C° 0 mm 3 mps 736 mmHg 59%
13:00 +26°C° 0 mm 2 mps 736 mmHg 52%
14:00 +27°C° 0 mm 2 mps 736 mmHg 46%
15:00 +27°C° 0 mm 3 mps 736 mmHg 48%
16:00 +26°C° 0 mm 3 mps 736 mmHg 50%
17:00 +26°C° 0 mm 3 mps 736 mmHg 51%
18:00 +24°C° 0 mm 3 mps 736 mmHg 60%
19:00 +23°C° 0 mm 2 mps 736 mmHg 68%
20:00 +20°C° 0 mm 2 mps 736 mmHg 76%
21:00 +19°C° 0 mm 2 mps 736 mmHg 79%
22:00 +18°C° 0 mm 2 mps 736 mmHg 82%
23:00 +18°C° 0 mm 2 mps 736 mmHg 85%

30 July, Friday

Time Temperature Precipitation Wind Pressure Humidity
00:00 +17°C° 0 mm 2 mps 736 mmHg 87%
01:00 +16°C° 0 mm 2 mps 736 mmHg 90%
02:00 +16°C° 0 mm 2 mps 737 mmHg 93%
03:00 +16°C° 0 mm 2 mps 737 mmHg 90%
04:00 +16°C° 0 mm 2 mps 737 mmHg 88%
05:00 +16°C° 0 mm 2 mps 737 mmHg 86%
06:00 +17°C° 0 mm 3 mps 737 mmHg 75%
07:00 +19°C° 0 mm 3 mps 738 mmHg 64%
08:00 +21°C° 0 mm 4 mps 738 mmHg 53%
09:00 +22°C° 0 mm 4 mps 738 mmHg 47%
10:00 +23°C° 0 mm 4 mps 738 mmHg 42%
11:00 +26°C° 0 mm 4 mps 738 mmHg 36%
12:00 +26°C° 0 mm 4 mps 738 mmHg 35%
13:00 +27°C° 0 mm 4 mps 738 mmHg 34%
14:00 +28°C° 0 mm 4 mps 738 mmHg 33%
15:00 +27°C° 0 mm 3 mps 738 mmHg 36%
16:00 +27°C° 0 mm 3 mps 737 mmHg 38%
17:00 +27°C° 0 mm 3 mps 737 mmHg 41%
18:00 +24°C° 0 mm 2 mps 737 mmHg 49%
19:00 +21°C° 0 mm 2 mps 737 mmHg 57%
20:00 +20°C° 0 mm 1 mps 737 mmHg 66%
21:00 +19°C° 0 mm 1 mps 737 mmHg 67%
22:00 +19°C° 0 mm 1 mps 737 mmHg 68%
23:00 +17°C° 0 mm 2 mps 737 mmHg 70%
Show more

We Need Your Consent

Meteoprog and our Service Providers may store and access personal data such as cookies, device identifiers or other similar technologies on your device and process such data to personalise content and ads, as well as provide social media features and to analyse the traffic.

  • Store and/or access information on your device

    Cookies, device identifiers or other information can be stored or accessed on your device for the purposes indicated above.

  • Personalised ads and content, ad and content measurement, audience insights, and products development

    Ads and content can be personalised based on a profile. More data can be added to better personalise ads and content. Ad and content performance can be measured. Insights about the audience who saw the ads and content can be derived. Such data can be used to develop or improve user’s experience, systems and software.

By clicking ‘I Agree’ you will allow the use of indicated cookies, device identifiers, web beacons or other similar technologies. Your settings can be changed in the browser on your device.

For certain purposes, legitimate interests may be relied on, rather than consent. You can read more about this in our Privacy and Cookie Policy.